EW8682 Weather Reports


Display with metric or nautical units.
time (UTC)temp
F
wind
direction
speed
MPH
gust
MPH
rain 1hr
in
rain 24hr
in
rain mn
in
humidity
%
barometer
mb
20260903033046 67 182 1.0 3.0 0.00 0.00 0.00 45 1006.3
20260903031549 69 183 0.0 2.0 0.00 0.00 0.00 43 1006.2
20260903030045 71 183 0.0 2.0 0.00 0.00 0.00 41 1006.1
20260903024545 72 183 1.0 2.0 0.00 0.00 0.00 37 1006.0
20260903023044 74 183 0.0 2.0 0.00 0.00 0.00 36 1006.0
20260903021545 76 183 0.0 3.0 0.00 0.00 0.00 33 1005.9
20260903020100 76 182 2.0 5.0 0.00 0.00 0.00 33 1005.9
20260903014544 78 177 2.0 4.0 0.00 0.00 0.00 33 1005.9
20260903013043 79 173 2.0 5.0 0.00 0.00 0.00 34 1005.9
20260903011543 79 170 2.0 6.0 0.00 0.00 0.00 32 1005.9
20260903010043 79 178 2.0 8.0 0.00 0.00 0.00 30 1005.9
20260903004542 80 171 2.0 5.0 0.00 0.00 0.00 30 1005.8
20260903003043 81 196 2.0 9.0 0.00 0.00 0.00 34 1005.8
20260903001553 81 211 2.0 6.0 0.00 0.00 0.00 33 1005.8
20260903000041 82 209 3.0 7.0 0.00 0.00 0.00 32 1005.8
20260902234534 82 167 4.0 9.0 0.00 0.00 0.00 31 1005.8
20260902233035 82 184 4.0 8.0 0.00 0.00 0.00 28 1005.9
20260902231535 82 178 4.0 8.0 0.00 0.00 0.00 33 1005.8
20260902230030 83 206 4.0 9.0 0.00 0.00 0.00 34 1005.8
20260902224528 82 193 2.0 9.0 0.00 0.00 0.00 37 1006.0
20260902223026 83 174 3.0 9.0 0.00 0.00 0.00 35 1006.2
20260902221539 83 188 4.0 11.0 0.00 0.00 0.00 35 1006.3
20260902220025 83 221 4.0 9.0 0.00 0.00 0.00 35 1006.4
20260902214521 83 197 2.0 8.0 0.00 0.00 0.00 34 1006.6
20260902213020 82 196 3.0 11.0 0.00 0.00 0.00 35 1006.7
20260902211517 82 176 3.0 10.0 0.00 0.00 0.00 35 1006.9
20260902210014 81 159 5.0 9.0 0.00 0.00 0.00 37 1007.1
20260902204514 81 171 4.0 8.0 0.00 0.00 0.00 37 1007.1
20260902203011 81 186 1.0 10.0 0.00 0.00 0.00 36 1007.2
20260902201506 80 189 3.0 8.0 0.00 0.00 0.00 37 1007.4
20260902200005 80 221 5.0 9.0 0.00 0.00 0.00 39 1007.6
20260902194503 80 172 1.0 7.0 0.00 0.00 0.00 40 1007.8
20260902193101 79 192 2.0 6.0 0.00 0.00 0.00 38 1007.9
20260902191604 78 207 1.0 9.0 0.00 0.00 0.00 40 1007.9
20260902190055 78 196 3.0 5.0 0.00 0.00 0.00 43 1008.1
20260902184553 77 178 3.0 8.0 0.00 0.00 0.00 44 1008.3
20260902183116 76 198 3.0 7.0 0.00 0.00 0.00 46 1008.3
20260902181544 75 210 1.0 7.0 0.00 0.00 0.00 49 1008.3
20260902180041 74 196 3.0 8.0 0.00 0.00 0.00 50 1008.2
20260902174538 72 219 2.0 5.0 0.00 0.00 0.00 51 1008.3
20260902173049 71 270 3.0 9.0 0.00 0.00 0.00 53 1008.3
20260902171530 70 230 1.0 5.0 0.00 0.00 0.00 55 1008.4
20260902170028 70 202 1.0 5.0 0.00 0.00 0.00 55 1008.2
20260902164524 69 212 2.0 6.0 0.00 0.00 0.00 54 1008.0
20260902163022 68 198 1.0 5.0 0.00 0.00 0.00 53 1008.1
20260902161621 68 182 1.0 4.0 0.00 0.00 0.00 53 1008.1
20260902160015 66 182 1.0 4.0 0.00 0.00 0.00 51 1008.1
20260902154518 65 164 0.0 3.0 0.00 0.00 0.00 53 1008.1
20260902153007 64 36 0.0 2.0 0.00 0.00 0.00 54 1008.1
20260902151503 63 37 0.0 3.0 0.00 0.00 0.00 53 1008.0
20260902150100 61 38 2.0 5.0 0.00 0.00 0.00 50 1008.0
20260902144604 59 45 1.0 4.0 0.00 0.00 0.00 57 1007.9
20260902143052 58 25 2.0 4.0 0.00 0.00 0.00 58 1007.9
20260902141555 58 42 2.0 4.0 0.00 0.00 0.00 54 1007.8
20260902140050 57 56 2.0 5.0 0.00 0.00 0.00 57 1007.6
20260902134550 55 38 0.0 2.0 0.00 0.00 0.00 66 1007.4
20260902133048 55 40 0.0 2.0 0.00 0.00 0.00 66 1007.4
20260902131604 55 40 0.0 4.0 0.00 0.00 0.00 70 1007.5
20260902130054 55 42 1.0 3.0 0.00 0.00 0.00 70 1007.5
20260902124545 55 38 1.0 3.0 0.00 0.00 0.00 72 1007.6
20260902123044 55 42 0.0 2.0 0.00 0.00 0.00 73 1007.5
20260902121546 55 40 1.0 3.0 0.00 0.00 0.00 72 1007.6
20260902120042 55 38 1.0 3.0 0.00 0.00 0.00 73 1007.7
20260902114559 55 38 1.0 3.0 0.00 0.00 0.00 73 1007.8
20260902113040 54 40 1.0 3.0 0.00 0.00 0.00 76 1007.7
20260902111542 54 40 1.0 3.0 0.00 0.00 0.00 74 1007.6
20260902110045 54 40 2.0 3.0 0.00 0.00 0.00 73 1007.7
20260902104541 54 42 1.0 3.0 0.00 0.00 0.00 72 1007.8
20260902103039 54 44 1.0 2.0 0.00 0.00 0.00 70 1007.7
20260902101539 54 44 1.0 3.0 0.00 0.00 0.00 70 1007.8
20260902100034 54 45 1.0 3.0 0.00 0.00 0.00 68 1007.8
20260902094532 54 45 1.0 3.0 0.00 0.00 0.00 65 1007.8
20260902093037 54 46 1.0 2.0 0.00 0.00 0.00 64 1007.8
20260902091528 55 46 1.0 4.0 0.00 0.00 0.00 61 1007.7
20260902090027 55 167 1.0 2.0 0.00 0.00 0.00 60 1007.8
20260902084527 55 167 1.0 3.0 0.00 0.00 0.00 58 1007.7
20260902083033 55 168 2.0 4.0 0.00 0.00 0.00 56 1007.8
20260902081526 55 171 0.0 3.0 0.00 0.00 0.00 55 1007.8
20260902080025 56 171 0.0 3.0 0.00 0.00 0.00 53 1007.7
20260902074516 56 171 2.0 4.0 0.00 0.00 0.00 52 1007.7
20260902073024 57 171 1.0 3.0 0.00 0.00 0.00 49 1007.5
20260902071516 57 171 1.0 2.0 0.00 0.00 0.00 48 1007.5
20260902070009 58 171 1.0 3.0 0.00 0.00 0.00 47 1007.3
20260902064507 58 171 1.0 3.0 0.00 0.00 0.00 47 1007.1
20260902063013 59 172 1.0 3.0 0.00 0.00 0.00 47 1007.0
20260902061506 59 172 1.0 2.0 0.00 0.00 0.00 49 1007.1
20260902060007 59 172 1.0 3.0 0.00 0.00 0.00 50 1007.0
20260902054515 60 172 1.0 3.0 0.00 0.00 0.00 51 1007.1
20260902053005 61 173 1.0 2.0 0.00 0.00 0.00 50 1007.2
20260902051507 61 174 1.0 2.0 0.00 0.00 0.00 50 1007.1
20260902050006 62 174 0.0 2.0 0.00 0.00 0.00 50 1007.0
20260902044503 62 174 1.0 2.0 0.00 0.00 0.00 49 1006.9
20260902043002 63 174 1.0 3.0 0.00 0.00 0.00 48 1006.7
20260902041501 64 175 1.0 3.0 0.00 0.00 0.00 48 1006.6
20260902040001 65 175 1.0 3.0 0.00 0.00 0.00 45 1006.4
20260902034600 65 178 1.0 3.0 0.00 0.00 0.00 44 1006.2